Skip to main content Skip to accessibility
This website is not compatible with your web browser. You should install a newer browser. If you live in Jersey and need help upgrading call the States of Jersey web team on 440099.
Homegov.je

L'înformâtion et les sèrvices publyis pouor I'Île dé Jèrri

  • Choose the service you want to log in to:

  • gov.je

    Update your notification preferences

  • one.gov.je

    Access government and parish services

  • CAESAR

    Clear goods through customs or claim relief

  • Talentlink

    View or update your States of Jersey job application

Local METARs

METAR EGJJ 160050Z AUTO 30003KT 9999 HZ NCD 14/13 Q1023

METAR EGJB 160050Z 26005KT 0300 FG BKN000 14/14 Q1023

METAR LFRD 160030Z AUTO 32005KT 9999 BKN008 14/14 Q1024 TEMPO 0400 FG VV///

METAR LFRC 160030Z AUTO 29003KT 1600 0900 R28/1300U BCFG NSC 13/13 Q1023

 

 

 

​Times are in Greenwich Mean Time (GMT) and not British Summer Time (BST). They will be one hour different during BST.

Back to top
rating button